Location: Boston
(42.3580°N, 71.0600°W)
Time: 21:27:23
(UTC-04:00)

Vanguard 2 Rocket - Visible Passes

Search period start: 14 August 2018 00:00
Search period end: 24 August 2018 00:00
Orbit: 554 x 3327 km, 32.9° (Epoch: 13 August)

Date Brightness Start Highest point End Pass type
(mag) Time Alt. Az. Time Alt. Az. Time Alt. Az.
14 Aug 8.1 20:05:54 10° WSW 20:14:48 37° S 20:20:16 10° ESE visible
14 Aug 7.9 22:21:53 10° WSW 22:26:33 27° SSW 22:26:33 27° SSW visible
15 Aug 7.6 21:20:55 10° WSW 21:28:20 36° S 21:30:25 27° SSE visible
16 Aug 8.1 20:19:37 10° WSW 20:28:59 41° S 20:34:17 12° ESE visible
16 Aug 8.3 22:36:14 10° WSW 22:40:05 21° SW 22:40:05 21° SW visible
17 Aug 7.7 21:35:01 10° WSW 21:42:22 33° SSW 21:43:56 29° S visible
18 Aug 8.1 20:33:32 10° WSW 20:43:04 41° SSW 20:47:46 16° SE visible
18 Aug 8.8 22:50:56 10° WSW 22:53:34 16° SW 22:53:34 16° SW visible
19 Aug 8.1 21:49:18 10° W 21:56:15 27° SSW 21:57:24 26° S visible
20 Aug 8.3 20:47:36 10° W 20:57:03 38° SSW 21:01:14 19° SE visible
20 Aug 9.3 23:06:44 10° WSW 23:07:03 10° WSW 23:07:03 10° WSW visible
21 Aug 8.5 22:03:52 10° W 22:09:56 21° SW 22:10:53 20° SSW visible
22 Aug 8.4 21:01:49 10° W 21:10:52 32° SSW 21:14:43 19° SSE visible
23 Aug 8.7 19:59:40 10° W 20:11:26 43° SSW 20:18:21 10° SE visible
23 Aug 9.1 22:19:06 10° WSW 22:23:24 15° SW 22:24:22 14° SSW visible
